Home   Weather   San Diego   Past weeks

Flag for USA Past Weather in San Diego, California, USA — Yesterday and Last 2 Weeks

Now
65 °F

Sunny.


Feels Like: 65 °F
Forecast: 49 / 66 °F
Wind: 13 mph from Northwest

Location: San Diego - North Island

Current Time: Dec 3, 2016 at 1:57:58 pm

Latest Report: Dec 3, 2016 at 12:52 pm


Visibility: 10 mi

Pressure: 30.03 "Hg

Humidity: 24%

Dew Point: 27 °F

Location of San DiegoLocation

Past Weather in San Diego — Graph

°F

San Diego Temperature Yesterday

Maximum temperature yesterday: 66 °F (at 12:52 pm)
Minimum temperature yesterday: 51 °F (at 3:52 am)
Average temperature yesterday: 58 °F

High & Low Weather Summary for the Past Weeks

 TemperatureHumidityPressure
High74 °F (Nov 24, 11:52 am)100% (Nov 23, 3:52 am)30.16 "Hg (Nov 23, 3:52 am)
Low45 °F (Nov 25, 6:52 am)19% (Nov 19, 8:52 am)29.87 "Hg (Nov 28, 3:52 pm)
Average59 °F67%30.02 "Hg
* Reported Nov 18 11:52 am — Dec 3 11:52 am, San Diego, Weather by CustomWeather, © 2016

Note: Actual official high and low records may vary slightly from our data, if they occured in-between our weather recording intervals... More about our weather records

Advertising

San Diego Weather History for the Previous 24 Hours

Scroll right to see more
 ConditionsComfort  
Time TempWeatherWind HumidityBarometerVisibility
11:52 am
Sat, Dec 3
63 °FSunny.9 mph33%30.07 "Hg10 mi
10:52 am63 °FSunny.No wind20%30.10 "Hg10 mi
9:52 am60 °FPassing clouds.No wind22%30.12 "Hg10 mi
8:52 am57 °FPassing clouds.5 mph33%30.11 "Hg10 mi
7:52 am50 °FPassing clouds.5 mph41%30.09 "Hg10 mi
6:52 am45 °FPassing clouds.No wind51%30.09 "Hg7 mi
4:52 am48 °FClear.5 mph46%30.05 "Hg10 mi
3:52 am48 °FClear.9 mph46%30.05 "Hg10 mi
2:52 am50 °FClear.8 mph41%30.05 "Hg10 mi
1:52 am52 °FClear.6 mph32%30.04 "Hg10 mi
12:52 am50 °FClear.8 mph38%30.03 "Hg10 mi
11:52 pm
Fri, Dec 2
54 °FClear.6 mph29%30.03 "Hg10 mi
10:52 pm51 °FClear.10 mph38%30.04 "Hg10 mi
9:52 pm54 °FPassing clouds.7 mph29%30.03 "Hg10 mi
8:52 pm57 °FClear.7 mph25%30.02 "Hg10 mi
7:52 pm59 °FPassing clouds.12 mph21%30.00 "HgN/A
6:52 pm60 °FPassing clouds.12 mph21%29.98 "Hg10 mi
5:52 pm62 °FPassing clouds.15 mph22%29.96 "Hg10 mi
4:52 pm63 °FPassing clouds.16 mph24%29.94 "Hg10 mi
3:52 pm64 °FPassing clouds.13 mph37%29.93 "Hg10 mi
2:52 pm64 °FPassing clouds.12 mph35%29.92 "Hg10 mi
1:52 pm65 °FPassing clouds.15 mph29%29.92 "Hg10 mi
Weather by CustomWeather, © 2016

See weather overviewHow to use our weather pages